Regional Weather Roundup
Issued by NWS

Home | Current Version | Previous Version | Text Only | Print | Product List | Glossary Off
Versions: 1 2 3 4 5 6 7 8 9 10 11 12 13 14 15 16 17 18 19 20 21 22 23 24 25 26 27 28

000
ASUS45 KTFX 271810
RWRMT
MONTANA REGIONAL WEATHER ROUNDUP
NATIONAL WEATHER SERVICE GREAT FALLS MT
1200 PM MDT WED JUL 27 2016

NOTE: "FAIR" INDICATES FEW OR NO CLOUDS BELOW 12000 FEET WITH NO
SIGNIFICANT WEATHER AND/OR OBSTRUCTIONS TO VISIBILITY.

MTZ001>007-043-271900-
WEST OF THE DIVIDE

CITY           SKY/WX    TMP DP  RH WIND       PRES   REMARKS
KALISPELL      SUNNY     78  52  40 NE7       30.13S
MISSOULA       SUNNY     80  52  37 CALM      30.13F
BUTTE          SUNNY     76  41  28 VRB3      30.24F
MULLAN PASS    MOSUNNY   72  50  45 VRB5      30.29R
ANACONDA         N/A     73  48  40 N9        30.21S
DEER LODGE       N/A     73  48  40 CALM      30.24S
EUREKA           N/A     75  54  46 CALM      30.15S
HAMILTON         N/A     75  52  43 CALM      30.15S
LIBBY            N/A     79  50  36 CALM      30.12S
PLAINS           N/A     84  51  31 CALM      30.09F
RONAN            N/A     79  55  43 NW2       30.18R
THOMPSON FALLS   N/A     81  55  40 CALM      30.12F
$$

MTZ008-052>055-271900-
SOUTHWEST MONTANA

CITY           SKY/WX    TMP DP  RH WIND       PRES   REMARKS
BOZEMAN        MOSUNNY   77  47  34 VRB3      30.20S
DILLON         SUNNY     72  50  45 N5        30.21F
W YELLOWSTONE  SUNNY     75  32  20 W6        30.32S
ENNIS          SUNNY     79  39  24 VRB5      30.26F
THREE FORKS      N/A     77  16  10 NE1       30.17S
TWIN BRIDGES     N/A     73  45  36 S2        30.17F
$$

MTZ009-010-012-014-046-048-049-054-271900-
EAST SLOPES AND CENTRAL MONTANA

CITY           SKY/WX    TMP DP  RH WIND       PRES   REMARKS
CUT BANK       MOSUNNY   72  53  51 MISG      30.21R
GREAT FALLS    SUNNY     75  51  43 E5        30.19S
MALMSTROM AFB  SUNNY     73  52  47 SW3       30.19S
HELENA         SUNNY     78  54  43 VRB3      30.17F
CHOTEAU          N/A     75  50  41 VRB3      30.23S
CONRAD           N/A     75  58  55 N5        30.21S
$$

MTZ011-013-016-021-045-047-050-051-271900-
NORTH CENTRAL MONTANA

CITY           SKY/WX    TMP DP  RH WIND       PRES   REMARKS
HAVRE          CLOUDY    72  59  63 CALM      30.16S
LEWISTOWN      SUNNY     72  57  59 VRB3      30.21R
N BAR RANCH      N/A     75  52  43 NW7       30.22S
CHINOOK          N/A     73  61  64 CALM      30.15R
$$

MTZ017>020-022>027-061-062-271900-
NORTHEAST MONTANA

CITY           SKY/WX    TMP DP  RH WIND       PRES   REMARKS
GLASGOW        CLOUDY    69  60  73 CALM      30.14S
JORDAN           N/A     72  61  68 SE6       30.14R
SIDNEY         PTSUNNY   71  60  68 N6        30.14S
WOLF POINT     LGT RAIN  68  62  81 E10       30.16R
PLENTYWOOD       N/A     66  57  72 CALM      30.18R
SCOBEY           N/A     69  55  60 NE8       30.15R
$$

MTZ028>42-056>058-271900-
SOUTHCENTRAL AND SOUTHEAST MONTANA

CITY           SKY/WX    TMP DP  RH WIND       PRES   REMARKS
BAKER          LGT RAIN  62  59  90 SE17      30.15F
BILLINGS       MOSUNNY   79  56  45 E5        30.15F
LIVINGSTON     SUNNY     83  42  23 VRB3      30.17F
MILES CITY     CLOUDY    76  60  57 N7        30.12S
EKALAKA          N/A     61  57  86 SE10      30.12F
FORSYTH          N/A     77  61  57 CALM      30.11S
LAUREL           N/A     79  56  45 E3        30.13F
ROUNDUP          N/A     77  55  46 N5        30.06S
$$

REGIONAL REPORTS...DAKOTAS

CITY           SKY/WX    TMP DP  RH WIND       PRES   REMARKS
WILLISTON      CLOUDY    73  59  61 CALM      30.14R
MINOT          PTSUNNY   75  58  55 NE10      30.13F
DICKINSON      CLOUDY    70  60  70 E6        30.15R
BEACH            N/A     68  64  88 S8        30.19S
CROSBY         PTSUNNY   70  63  78 SE6       30.18R
WATFORD CITY     N/A    N/A N/A N/A MISG        N/A
BISMARCK       MOSUNNY   76  63  64 E8        30.12S
GRAND FORKS    MOSUNNY   75  61  61 N13       30.07R
FARGO          SUNNY     77  59  53 N15       30.04R
BUFFALO SD       N/A     60  57  89 N9        30.12R
RAPID CITY     CLOUDY    79  64  60 N7        30.13R
$$

REGIONAL REPORTS...WYOMING/IDAHO/WASHINGTON

CITY           SKY/WX    TMP DP  RH WIND       PRES   REMARKS
GILLETTE       MOSUNNY   84  52  33 N7        30.16S
SHERIDAN       SUNNY     84  51  31 VRB5      30.16R
BUFFALO WY     SUNNY     82  53  36 N9        30.21R
CODY           SUNNY     77  46  33 N12       30.21S
YELLOWSTONE LA   N/A     68  38  33 CALM      30.42S
IDAHO FALLS    SUNNY     81  46  29 VRB3      30.19S
SALMON         SUNNY     73  45  35 CALM      30.13F
BOISE          SUNNY     89  47  23 VRB6      30.06S
SPOKANE        MOSUNNY   80  52  37 VRB5      30.09S
$$

REGIONAL REPORTS...ALBERTA

CITY           SKY/WX    TMP DP  RH WIND       PRES   REMARKS
EDMONTON       MOSUNNY   79  54  41 NE5       30.13S
CALGARY        PTSUNNY   72  55  56 CALM      30.21S
LETHBRIDGE     PTSUNNY   72  59  64 VRB2      30.18S
MEDICINE HAT   PTSUNNY   77  61  57 NW3       30.16S
$$

REGIONAL REPORTS...SASKATCHEWAN

CITY           SKY/WX    TMP DP  RH WIND       PRES   REMARKS
SWIFT CURRENT  SUNNY     72  57  60 E9        30.17S
REGINA         CLOUDY    72  55  56 CALM      30.16S
SASKATOON      MOSUNNY   75  50  41 VRB3      30.19S
$$




USA.gov is the U.S. government's official web portal to all federal, state and local government web resources and services.